Miscellaneous Local Product
Issued by NWS North Platte, NE

Home | Current Version | Previous Version | Text Only | Print | Product List | Glossary On
Versions: 1 2 3 4 5 6 7 8 9 10 11 12 13 14 15 16 17 18 19 20 21 22 23 24 25 26 27 28 29 30 31 32 33 34 35 36 37 38 39 40 41 42 43 44 45 46 47 48 49 50
000
AXUS43 KLBF 291610
MISLBF


WESTERN AND NORTH CENTRAL NEBRASKA HOURLY WEATHER ROUNDUP
NATIONAL WEATHER SERVICE NORTH PLATTE NE
1100 AM CDT SUN MAR 29 2015

***STATIONS NOT REPORTING VARIABLES SUCH AS SKY/WEATHER OR
PRESSURE ARE PROVIDED BY THE NEBRASKA DEPARTMENT OF
ROADS...RAWS...AND APRS NETWORKS...AND ARE NOT UNDER
NATIONAL WEATHER SERVICE QUALITY CONTROL***

...OBSERVATIONS IN AND NEAR THE EASTERN PANHANDLE OF NEBRASKA...

CITY           SKY/WX    TMP DP  RH WIND       PRES   REMARKS
PINE RIDGE     SUNNY     50  30  46 N12       30.23R
CHADRON        SUNNY     53  28  38 NW18G29   30.23R
ALLIANCE       SUNNY     52  26  36 N24G35    30.23R
SIDNEY         SUNNY     51  27  39 N37G51    30.24R
WHITECLAY        N/A     49  30  47 NW16        N/A
CRESCENT LAKE    N/A     51  26  37 N23G32      N/A
BIG SPRINGS      N/A     50  30  46 NW15        N/A
$$

...OBSERVATIONS IN NORTH CENTRAL NEBRASKA...

CITY           SKY/WX    TMP DP  RH WIND       PRES   REMARKS
VALENTINE      SUNNY     50  19  29 NW29G41   30.15R
THEDFORD       SUNNY     52  29  40 NW36G51   30.14R
AINSWORTH      SUNNY     52  30  42 NW29G39   30.11R
O`NEILL        CLOUDY    49  36  61 NW33G46   30.06R
ORD            MOSUNNY   54  33  45 NW36G47   30.06R
BROKEN BOW     SUNNY     55  34  45 NW33G46   30.10R
BROWNLEE         N/A     53  28  38 NW41        N/A
SPRINGVIEW       N/A     50  32  50 N16G33      N/A
BREWSTER         N/A     54  31  41 NW40        N/A
ROSE             N/A     53  35  51 SW38        N/A
NEWPORT          N/A     50  32  51 NW35        N/A
SARGENT          N/A     53  35  50 NW12G22     N/A
COMSTOCK         N/A     57  36  45 NW29        N/A
EWING            N/A     47  38  70 NW16G32     N/A
$$

...OBSERVATIONS IN SOUTHWEST NEBRASKA AND FAR NORTHEAST COLORADO...

CITY           SKY/WX    TMP DP  RH WIND       PRES   REMARKS
WRAY           FAIR      55  25  31 N29G38    30.25R
IMPERIAL         N/A     55  28  35 NW30G40   30.21R
OGALLALA       SUNNY     54  31  40 N26G41    30.21R
NORTH PLATTE   SUNNY     54  28  36 NW26G47   30.16R
MCCOOK         SUNNY     60  29  30 NW28G35   30.17R
LEXINGTON      SUNNY     56  29  35 NW31G43   30.14R
PAXTON           N/A     51  32  49 NW17        N/A
SUTHERLAND       N/A     49  25  38 SW30        N/A
BRADY            N/A     54  31  40 SW7G15      N/A
GOTHENBURG       N/A     52  30  43 NW20        N/A
CALLAWAY         N/A     50  33  51 NW28        N/A
$$

...NORTH PLATTE AREA...

CITY           SKY/WX    TMP DP  RH WIND       PRES   REMARKS
AIRPORT        SUNNY     54  28  36 NW26G47   30.16R
DOWNTOWN         N/A     53  29  39 N16G35      N/A
$$

...SOME WEATHER OBSERVATIONS FROM AROUND THE REGION...

CITY           SKY/WX    TMP DP  RH WIND       PRES   REMARKS
DENVER         SUNNY     50  20  30 NE18      30.33R
LARAMIE        SUNNY     41  14  33 W7        30.31S
CHEYENNE       SUNNY     45  18  34 N15G21    30.29S
SCOTTSBLUFF    SUNNY     53  30  41 NW23G31   30.29R
RAPID CITY     MOSUNNY   51  31  46 N26G33    30.20R
PIERRE         SUNNY     48  30  49 NW28G40   30.10R
WINNER         FAIR      50  29  44 NW31G45   30.11R
SIOUX FALLS    CLOUDY    45  36  70 NW31G47   29.89R
OMAHA          PTSUNNY   58  37  45 NW24G31   29.92S
GRAND ISLAND   SUNNY     58  34  40 NW36G49   30.07R
KANSAS CITY    PTSUNNY   51  40  65 SW14      29.99R
WICHITA        PTSUNNY   58  46  64 NW6       30.00R
HAYS           PTSUNNY   63  27  25 N24G32    30.11R
LIBERAL        SUNNY     64  32  29 N32G45    30.17R
GOODLAND       SUNNY     55  26  32 NW25G36   30.24R
$$



USA.gov is the U.S. government's official web portal to all federal, state and local government web resources and services.